Flag for Colombia Weather past 2 weeks in Bogota, Colombia

Now
55 °F

Passing clouds.


Feels Like: 55 °F
Forecast: 45 / 68 °F
Wind: 3 mph from Northeast

Location: Bogota / Eldorado

Current Time: Dec 24, 2014 at 10:49:26 PM

Latest Report: Dec 24, 2014 at 10:00 PM


Visibility: N/A

Pressure: 30.35 "Hg

Humidity: 77%

Dew point: 48 °F

Location of BogotaLocation

Historic Weather in Bogota — Graph

°F

Bogota temperature yesterday

Maximum temperature yesterday: 70 °F (at 1:00 PM)
Minimum temperature yesterday: 43 °F (at 6:00 AM)
Average temperature yesterday: 56 °F

Past Weeks' High & Low Weather Summary

 TemperatureHumidityPressure
High84 °F (Dec 16, 11:00 AM)100% (Dec 10, 4:00 AM)30.40 "Hg (Dec 10, 4:00 AM)
Low41 °F (Dec 19, 5:00 AM)32% (Dec 22, 11:00 AM)29.96 "Hg (Dec 16, 11:00 AM)
Average56 °F79%30.30 "Hg
* Reported Dec 9 10:00 PM — Dec 24 10:00 PM, Bogota, Weather by CustomWeather, © 2014

Note: Actual official high and low records may vary slightly from our data, if they occured in-between our weather recording intervals... More about our weather records

Advertising

Bogota weather history for previous 24 hours

 ConditionsComfort  
Time TempWeatherWind HumidityBarometerVisibility
10:00 PM
Dec 24
55 °FPassing clouds.3 mph77%30.35 "HgN/A
9:00 PM55 °FPassing clouds.3 mph77%30.34 "HgN/A
8:00 PM57 °FPassing clouds.5 mph67%30.31 "HgN/A
7:00 PM59 °FPassing clouds.15 mph63%30.28 "HgN/A
6:00 PM61 °FPassing clouds.9 mph52%30.26 "HgN/A
5:00 PM64 °FBroken clouds.9 mph52%30.24 "HgN/A
4:00 PM64 °FPartly sunny.13 mph46%30.23 "HgN/A
3:00 PM66 °FPartly sunny.6 mph40%30.24 "HgN/A
2:00 PM68 °FPartly sunny.12 mph38%30.26 "HgN/A
1:00 PM66 °FScattered clouds.8 mph49%30.29 "HgN/A
12:00 PM61 °FScattered showers. Broken clouds.3 mph72%30.31 "HgN/A
11:00 AM59 °FScattered showers. Broken clouds.7 mph72%30.32 "HgN/A
10:00 AM59 °FScattered showers. Broken clouds.7 mph68%30.33 "HgN/A
9:00 AM61 °FScattered clouds.5 mph59%30.32 "HgN/A
8:00 AM55 °FCool.No wind72%30.32 "HgN/A
7:00 AM48 °FScattered clouds.2 mph87%30.30 "HgN/A
6:00 AM48 °FPartly sunny.2 mph87%30.28 "HgN/A
5:00 AM45 °FPassing clouds.2 mph93%30.27 "HgN/A
4:00 AM46 °FPassing clouds.5 mph93%30.26 "HgN/A
3:00 AM46 °FPassing clouds.2 mph87%30.26 "HgN/A
2:00 AM46 °FPassing clouds.2 mph87%30.29 "HgN/A
1:00 AM46 °FPassing clouds.5 mph87%30.31 "HgN/A
12:00 AM48 °FPassing clouds.5 mph87%30.33 "HgN/A
11:00 PM
Dec 23
50 °FPassing clouds.5 mph76%30.34 "HgN/A
10:00 PM54 °FPassing clouds.5 mph63%30.33 "HgN/A
Weather by CustomWeather, © 2014

See weather overviewHow to use our weather pages